Location: Boiro
(42.6475°N, 8.8834°W)
Time: 18:30:24
(UTC+01:00)

Tiros 1 - Pass Details

Date: 11 December 2021
Orbit: 630 x 663 km, 48.4° (Epoch: 20 January)

Event Time Altitude Azimuth Distance (km) Brightness Sun altitude
Rises 00:01:45 0° 292° (WNW) 2,945 - -63.3°
Reaches altitude 10° 00:04:15 10° 283° (WNW) 2,038 - -63.7°
Maximum altitude 00:08:25 32° 220° (SW) 1,110 - -64.2°
Drops below altitude 10° 00:12:36 10° 158° (SSE) 2,049 - -64.8°
Sets 00:15:08 0° 148° (SSE) 2,962 - -65.1°
